Regional Weather Roundup
Issued by NWS Green Bay, WI

Home | Current Version | Previous Version | Graphics & Text | Print | Product List | Glossary Off
Versions: 1 2 3 4 5 6 7 8 9 10 11 12 13 14 15 16 17 18 19 20 21 22 23 24 25 26 27 28 29 30 31 32 33 34 35 36 37 38 39 40 41 42 43 44 45 46 47 48 49 50

000
ASUS43 KGRB 261500
RWRGRB

NORTH-CENTRAL AND NORTHEAST WISCONSIN REGIONAL WEATHER ROUNDUP
NATIONAL WEATHER SERVICE GREEN BAY WI
1000 AM CDT TUE JUL 26 2016

WIZ005-009-010>012-018-019-261600-
NORTH CENTRAL WISCONSIN

CITY           SKY/WX    TMP DP  RH WIND       PRES   REMARKS
IRONWOOD       SUNNY     79  70  73 SW7       29.98F
MANITOWISH WTR NOT AVBL
ARBOR VITAE    NOT AVBL
EAGLE RIVER    NOT AVBL
LAND O LAKES   NOT AVBL
RHINELANDER    SUNNY     80  65  59 W10       30.08S
PHILLIPS       PTSUNNY   76  67  74 SW5       30.06S
ANTIGO         NOT AVBL
TOMAHAWK       NOT AVBL
MERRILL        NOT AVBL
$$

WIZ013-073-261600-
NORTHEAST WISCONSIN

CITY           SKY/WX    TMP DP  RH WIND       PRES   REMARKS
IRON MOUNTAIN  SUNNY     80  64  58 VRB5      30.02F
MARINETTE      SUNNY    N/A N/A N/A CALM      30.03F
$$

WIZ017-030-035>037-045-261600-
CENTRAL WISCONSIN

CITY           SKY/WX    TMP DP  RH WIND       PRES   REMARKS
MEDFORD        NOT AVBL
WAUSAU         SUNNY     80  64  58 NW8       30.06S
MOSINEE        SUNNY     81  64  57 W5        30.08F
MARSHFIELD     SUNNY     82  65  56 W7        30.07F
WISC RAPIDS    SUNNY     82  65  56 S9        30.08F
STEVENS POINT  NOT AVBL
WAUPACA        NOT AVBL
SHAWANO        NOT AVBL
CLINTONVILLE   SUNNY     79  63  57 W3        30.05F
WAUTOMA        SUNNY     80  66  62 W6        30.07F
$$

WIZ038-039-048-051-261600-
FOX VALLEY

CITY           SKY/WX    TMP DP  RH WIND       PRES   REMARKS
NWS GREEN BAY  SUNNY     79  70  74 W5        30.05F
APPLETON       SUNNY     75  64  69 CALM      30.05F
OSHKOSH        SUNNY     79  65  62 NW5       30.06F
FOND DU LAC    SUNNY     80  65  59 CALM      30.07F
$$

WIZ022-050-052-261600-
EAST CENTRAL WISCONSIN

CITY           SKY/WX    TMP DP  RH WIND       PRES   REMARKS
EPHRAIM        FAIR      76  66  71 W7        30.02F
WASHINGTON ISL NOT AVBL
STURGEON BAY   SUNNY     79  66  64 W7        30.04F
MANITOWOC      NOT AVBL
SHEBOYGAN      SUNNY     81  63  54 VRB3      30.06F
$$

LMZ563-521-522-541>543-261600-
LAKESHORE

STATION/POSITION TIME  TEMP    WIND        PRES    VSBY  WAVE
                       AIR SEA DIR/SP/G                  HT/PER
                 (UTC) (F)     (DEG/KT/KT) (MB)    (MI)  (FT/S)
SHEBOYGAN LKSHOR 1400   76     360/  4/  4 1018.1S
KEWAUNEE LKSHORE 1400   77     140/  3/  4 1017.1F
NORTHPORT PIER   1400   77     240/  4/  7 1016.6F
N MID LAKE BUOY  1350   70 70  220/  6/  6 1016.1F         1
S GREEN BAY BUOY 1400   72 73  220/  6/  8   N/A
SISTER BAY LKSHO 1421   81     290/  8/  9   N/A
CHAMBERS ISLAND  1400   74     210/  4/  7 1016.9S
MENOMINEE LKSHOR 1400   75      CALM  /  5 1016.0F
$$




USA.gov is the U.S. government's official web portal to all federal, state and local government web resources and services.